Home > Weather > Bolton > Past weeks

Flag for United Kingdom Past Weather in Bolton, England, United Kingdom — Yesterday and Last 2 Weeks

Now
59 °F

Scattered showers. Scattered clouds.


Feels Like: 57 °F
Forecast: 52 / 62 °F
Wind: 10 mph from Northwest

Location: Manchester Airport

Current Time: Jun 25, 2016 at 8:40:42 PM

Latest Report: Jun 25, 2016 at 8:20 PM


Visibility: N/A

Pressure: 30.04 "Hg

Humidity: 82%

Dew Point: 54 °F

Location of BoltonLocation

Past Weather in Bolton — Graph

°F

Bolton Temperature Yesterday

Maximum temperature yesterday: 64 °F (at 3:50 PM)
Minimum temperature yesterday: 52 °F (at 3:20 AM)
Average temperature yesterday: 58 °F

High & Low Weather Summary for the Past Weeks

 TemperatureHumidityPressure
High72 °F (Jun 23, 3:50 PM)100% (Jun 11, 12:20 AM)30.21 "Hg (Jun 11, 12:20 AM)
Low50 °F (Jun 19, 12:20 AM)47% (Jun 23, 3:50 PM)29.33 "Hg (Jun 14, 5:20 PM)
Average59 °F82%29.82 "Hg
* Reported Jun 10 7:20 PM — Jun 25 7:20 PM, Bolton, Weather by CustomWeather, © 2016

Note: Actual official high and low records may vary slightly from our data, if they occured in-between our weather recording intervals... More about our weather records

Advertising

Bolton Weather History for the Previous 24 Hours

Scroll right to see more
 ConditionsComfort  
Time TempWeatherWind HumidityBarometerVisibility
7:20 PM
Sat, Jun 25
59 °FPartly sunny.12 mph77%30.04 "HgN/A
6:50 PM59 °FScattered clouds.12 mph77%30.04 "HgN/A
6:20 PM61 °FScattered clouds.14 mph72%30.04 "HgN/A
5:50 PM59 °FScattered clouds.14 mph77%30.04 "HgN/A
5:20 PM63 °FScattered clouds.14 mph68%30.04 "HgN/A
4:50 PM63 °FScattered clouds.12 mph68%30.04 "HgN/A
4:20 PM64 °FScattered clouds.12 mph60%30.04 "HgN/A
3:50 PM63 °FScattered clouds.13 mph64%30.04 "HgN/A
3:20 PM63 °FPassing clouds.14 mph68%30.01 "HgN/A
2:50 PM63 °FScattered clouds.14 mph68%30.01 "HgN/A
2:20 PM63 °FScattered showers. Scattered clouds.14 mph73%30.01 "HgN/A
1:50 PM59 °FScattered showers. Scattered clouds.8 mph77%30.01 "HgN/A
1:20 PM63 °FScattered showers. Passing clouds.10 mph77%30.01 "HgN/A
12:50 PM57 °FPassing clouds.5 mph82%30.04 "HgN/A
12:20 PM57 °FRain showers. Passing clouds.13 mph88%30.04 "HgN/A
11:50 AM57 °FRain showers. Passing clouds.10 mph77%30.04 "HgN/A
11:20 AM59 °FRain showers. Scattered clouds.8 mph82%30.04 "HgN/A
10:50 AM57 °FSprinkles. Scattered clouds.10 mph82%30.04 "HgN/A
10:20 AM57 °FSprinkles. Scattered clouds.3 mph82%30.04 "Hg4 mi
9:50 AM59 °FSprinkles. Passing clouds.5 mph77%30.04 "HgN/A
9:20 AM59 °FSprinkles. Passing clouds.5 mph77%30.04 "HgN/A
8:50 AM57 °FPassing clouds.5 mph82%30.04 "HgN/A
8:20 AM57 °FPassing clouds.5 mph77%30.04 "HgN/A
7:50 AM55 °FPassing clouds.5 mph88%30.01 "HgN/A
7:20 AM55 °FPassing clouds.3 mph88%30.01 "HgN/A
6:50 AM54 °FPassing clouds.5 mph88%30.01 "HgN/A
6:20 AM54 °FPassing clouds.3 mph88%30.01 "HgN/A
5:50 AM52 °FBroken clouds.3 mph94%30.01 "HgN/A
5:20 AM52 °FMostly cloudy.5 mph94%30.01 "HgN/A
4:50 AM52 °FPartly cloudy.5 mph94%30.01 "HgN/A
4:20 AM52 °FPassing clouds.3 mph94%30.01 "HgN/A
3:50 AM52 °FPassing clouds.5 mph94%30.01 "HgN/A
3:20 AM52 °FClear.5 mph94%30.01 "Hg10 mi
2:50 AM54 °FPassing clouds.3 mph88%30.01 "HgN/A
2:20 AM52 °FPassing clouds.3 mph88%30.01 "HgN/A
1:50 AM52 °FClear.2 mph94%30.01 "Hg10 mi
1:20 AM54 °FClear.No wind88%30.01 "Hg10 mi
12:50 AM54 °FPassing clouds.2 mph88%30.01 "HgN/A
12:20 AM55 °FPassing clouds.2 mph88%30.01 "HgN/A
11:50 PM
Fri, Jun 24
55 °FPassing clouds.6 mph88%30.01 "HgN/A
11:20 PM55 °FPassing clouds.No wind88%30.01 "HgN/A
10:50 PM55 °FPassing clouds.No wind88%30.01 "HgN/A
10:20 PM57 °FPassing clouds.No wind77%30.01 "HgN/A
9:50 PM57 °FPassing clouds.No wind82%30.01 "HgN/A
9:20 PM59 °FPassing clouds.No wind68%30.01 "HgN/A
8:50 PM59 °FPassing clouds.3 mph72%30.01 "HgN/A
8:20 PM59 °FScattered clouds.3 mph72%29.98 "HgN/A
Weather by CustomWeather, © 2016

See weather overviewHow to use our weather pages